Weather History for KBDL - May, 2012

Change the Weather History Date:

Saturday, May 26, 2012

  Actual Average Record
Temperature  
Mean Temperature 75 °F 62 °F  
Max Temperature 87 °F 74 °F 99 °F (2010)
Min Temperature 63 °F 51 °F 36 °F (1972)
Degree Days  
Heating Degree Days 0 4  
Month to date heating degree days 110 185  
Since 1 July heating degree days 4736 5938  
Cooling Degree Days 10 2  
Month to date cooling degree days 37 22  
Year to date cooling degree days 58 28  
Growing Degree Days 26 (Base 50)    
Moisture  
Dew Point 65 °F    
Average Humidity 65    
Maximum Humidity 93    
Minimum Humidity 37    
Precipitation  
Precipitation 0.00 in 0.16 in 1.60 in (2003)
Month to date precipitation 3.09 3.55  
Year to date precipitation 12.06 17.01  
Snow  
Snow 0.00 in 0.00 in T in (1988)
Month to date snowfall 0.0 0.0  
Since 1 July snowfall 26.7 40.5  
Snow Depth 0.00 in    
Sea Level Pressure  
Sea Level Pressure 30.09 in    
Wind  
Wind Speed 6 mph (SSW)    
Max Wind Speed 12 mph    
Max Gust Speed 16 mph    
Visibility 10 miles    
Events      
T = Trace of Precipitation, MM = Missing Value Source: NWS Daily Summary

Daily Weather History Graph

Daily Weather History Graph

Search for Another Location

Airport or City:

Trip Planner

Search our weather history database for the weather conditions in past years. The results will help you decide how hot, cold, wet, or windy it might be!

Date:

Astronomy

May. 26, 2012 Rise Set
Actual Time 5:20 AM EDT 8:15 PM EDT
Civil Twilight 4:47 AM EDT 8:48 PM EDT
Nautical Twilight 4:06 AM EDT 9:30 PM EDT
Astronomical Twilight 3:17 AM EDT 10:19 PM EDT
Moon 10:21 AM EDT (5/26) No Moon Set
Length of Visible Light 16h 00m
Length of Day
14h 54m
Waxing Crescent, 28% of the Moon is Illuminated
May 26
Waxing Crescent
May 28
First Quarter
Jun 4
Full
Jun 11
Last Quarter
Jun 19
New

Hourly Weather History & Observations

Time (EDT) Temp. Heat Index Dew Point Humidity Pressure Visibility Wind Dir Wind Speed Gust Speed Precip Events Conditions
12:51 AM 69.1 °F - 64.9 °F 87% 30.11 in 10.0 mi South 5.8 mph - N/A   Overcast
1:51 AM 69.1 °F - 64.9 °F 87% 30.10 in 10.0 mi South 8.1 mph - N/A   Overcast
2:18 AM 69.8 °F - 64.4 °F 83% 30.10 in 10.0 mi South 6.9 mph - N/A   Overcast
2:51 AM 69.1 °F - 64.9 °F 87% 30.11 in 10.0 mi South 8.1 mph - N/A   Overcast
3:11 AM 69.8 °F - 66.2 °F 88% 30.10 in 10.0 mi South 8.1 mph - N/A   Overcast
3:51 AM 68.0 °F - 66.0 °F 93% 30.09 in 10.0 mi South 8.1 mph - N/A   Overcast
4:29 AM 68.0 °F - 64.4 °F 88% 30.09 in 10.0 mi South 8.1 mph - N/A   Mostly Cloudy
4:37 AM 68.0 °F - 64.4 °F 88% 30.10 in 9.0 mi South 8.1 mph - N/A   Mostly Cloudy
4:51 AM 66.9 °F - 64.9 °F 93% 30.09 in 9.0 mi South 6.9 mph - N/A   Mostly Cloudy
5:13 AM 66.2 °F - 64.4 °F 94% 30.09 in 8.0 mi South 8.1 mph - N/A   Scattered Clouds
5:51 AM 66.9 °F - 64.9 °F 93% 30.09 in 7.0 mi South 5.8 mph - N/A   Scattered Clouds
6:51 AM 69.1 °F - 66.0 °F 90% 30.11 in 10.0 mi South 5.8 mph - N/A   Scattered Clouds
6:57 AM 69.8 °F - 66.2 °F 88% 30.11 in 10.0 mi South 5.8 mph - N/A   Mostly Cloudy
7:26 AM 69.8 °F - 66.2 °F 88% 30.11 in 10.0 mi South 8.1 mph - N/A   Scattered Clouds
7:51 AM 71.1 °F - 66.0 °F 84% 30.10 in 10.0 mi South 8.1 mph - N/A   Mostly Cloudy
8:18 AM 73.4 °F - 66.2 °F 78% 30.10 in 10.0 mi South 9.2 mph - N/A   Mostly Cloudy
8:51 AM 73.0 °F - 66.9 °F 81% 30.11 in 10.0 mi South 8.1 mph - N/A   Mostly Cloudy
9:51 AM 75.9 °F - 68.0 °F 76% 30.10 in 10.0 mi SSW 4.6 mph - N/A   Mostly Cloudy
10:51 AM 79.0 °F - 68.0 °F 69% 30.09 in 10.0 mi SE 6.9 mph - N/A   Mostly Cloudy
11:51 AM 82.0 °F 85.5 °F 69.1 °F 65% 30.09 in 10.0 mi Variable 3.5 mph - N/A   Mostly Cloudy
12:51 PM 86.0 °F 89.4 °F 68.0 °F 55% 30.08 in 10.0 mi NNW 8.1 mph - N/A   Mostly Cloudy
1:51 PM 86.0 °F 89.4 °F 68.0 °F 55% 30.07 in 10.0 mi North 3.5 mph - N/A   Mostly Cloudy
2:51 PM 86.0 °F 88.2 °F 66.0 °F 51% 30.05 in 10.0 mi West 4.6 mph - N/A   Mostly Cloudy
3:51 PM 84.0 °F 85.8 °F 64.9 °F 53% 30.05 in 10.0 mi NW 9.2 mph - N/A   Overcast
4:51 PM 87.1 °F 87.8 °F 63.0 °F 44% 30.04 in 10.0 mi NW 6.9 mph - N/A   Mostly Cloudy
5:51 PM 82.9 °F 83.7 °F 62.1 °F 49% 30.06 in 10.0 mi North 5.8 mph - N/A   Overcast
6:51 PM 82.0 °F 81.3 °F 54.0 °F 38% 30.06 in 10.0 mi NW 5.8 mph - N/A   Mostly Cloudy
7:51 PM 78.1 °F - 68.0 °F 71% 30.08 in 10.0 mi South 6.9 mph - N/A   Overcast
8:51 PM 75.0 °F - 57.0 °F 53% 30.06 in 10.0 mi WNW 5.8 mph - N/A   Mostly Cloudy
9:51 PM 73.0 °F - 64.0 °F 73% 30.08 in 10.0 mi SSE 3.5 mph - N/A   Mostly Cloudy
10:51 PM 69.1 °F - 59.0 °F 70% 30.09 in 10.0 mi Calm Calm - N/A   Scattered Clouds
11:51 PM 66.0 °F - 62.1 °F 87% 30.09 in 10.0 mi Calm Calm - N/A   Scattered Clouds